Regional Weather Roundup
Issued by NWS

Home | Current Version | Previous Version | Text Only | Print | Product List | Glossary On
Versions: 1 2 3 4 5 6 7 8 9 10 11 12 13 14 15 16 17 18 19 20 21 22 23 24 25 26 27 28 29 30 31 32 33 34 35 36 37 38 39 40 41 42 43 44 45 46 47 48 49 50
000
ASHW40 PHFO 290510
RWRHI

WEATHER ROUNDUP FOR HAWAII
NATIONAL WEATHER SERVICE HONOLULU HI
700 PM HST THU MAY 28 2015

THIS IS AN AUTOMATED REPORT THAT HAS NOT BEEN QUALITY CONTROLLED.

NOTE..."FAIR" INDICATES FEW OR NO CLOUDS BELOW 12,000 FEET WITH NO
SIGNIFICANT WEATHER AND/OR OBSTRUCTIONS TO VISIBILITY.

* - THESE SITES REPORT LIMITED FIELDS

HIZ001>004-290600-
KAUAI-NIIHAU-

CITY           SKY/WX    TMP DP  RH WIND       PRES   REMARKS
LIHUE APT      CLOUDY    74  62  66 N12       30.00R
PORT ALLEN*    NOT AVBL
POIPU*           N/A     75 N/A N/A N7G13       N/A
PRINCEVILLE*     N/A     72 N/A N/A MISG        N/A
KOKOLE POINT*  NOT AVBL
MOLOAA DAIRY*  NOT AVBL
WAIMEA HTS*    NOT AVBL
PUU OPAE*      NOT AVBL
PUU LUA*       NOT AVBL
MAKAHA RIDGE*  NOT AVBL
$$

HIZ005>011-290600-
OAHU-

CITY           SKY/WX    TMP DP  RH WIND       PRES   REMARKS
HONOLULU       MOCLDY    76  65  68 NE7       29.97R
KALAELOA       CLOUDY    73  66  78 VRB5      29.99R
KANEOHE MCB    CLOUDY    75  65  70 NE10      29.96R
WHEELER FIELD  MOCLDY    71  65  81 NW6       29.99R
BELLOWS*       NOT AVBL
KAHUKU*        NOT AVBL
WHEELER*       NOT AVBL
WAIANAE HARBOR NOT AVBL
DILLINGHAM*      N/A     75  63  64 MISG        N/A
KAHUKU TRN*      N/A     73  63  68 NE3G12      N/A
KAWAILOA*        N/A     70  63  78 NE8         N/A
KII*             N/A     75  64  69 NE9         N/A
MAKUA RANGE*     N/A     75  64  69 E12G18      N/A
OAHU FOREST NW NOT AVBL
SCHOFIELD BRK*   N/A     68  63  83 MISG        N/A
SCHOFIELD S*   NOT AVBL
WAIANAE VLY*   NOT AVBL
KUAOKALA*      NOT AVBL
HONOULIUULI*   NOT AVBL
MOKUOLOE IS*   NOT AVBL
PALEHUA*       NOT AVBL
WAIAWA PHB*    NOT AVBL
$$

HIZ012>013-290600-
MOLOKAI-

CITY           SKY/WX    TMP DP  RH WIND       PRES   REMARKS
MOLOKAI AIRPT  CLOUDY    74  66  76 N9        29.99R
KALAUPAPA      NOT AVBL
MAKAPULAPAI*   NOT AVBL
MOLOKAI 1*     NOT AVBL
PUU ALII*      NOT AVBL
$$

HIZ016-290600-
KAHOOLAWE-

CITY           SKY/WX    TMP DP  RH WIND       PRES   REMARKS
KAHOOLAWE*     NOT AVBL
HAKIOAWA*      NOT AVBL
HONOKANAIA*      N/A     78  67  69 NW8       29.99R
KANELOA*         N/A     72  68  88 NE5G13    30.02R
KEALIALALO*    NOT AVBL
LUA MAKIKA*    NOT AVBL
$$

HIZ014>015-290600-
LANAI-

CITY           SKY/WX    TMP DP  RH WIND       PRES   REMARKS
LANAI CITY     CLOUDY    70  67  90 E6        30.02R
LANAI 1*       NOT AVBL
$$

HIZ017>028-290600-
MAUI-

CITY           SKY/WX    TMP DP  RH WIND       PRES   REMARKS
KAHULUI        MOCLDY    76  67  73 N6        29.98R
KAPALUA-W MAUI NOT AVBL
HANA AIRPORT   CLOUDY    72  68  88 W3        30.01R
HANA*          NOT AVBL
HALEAKALA SUMM   N/A     46  36  66 SW8         N/A
MAALAEA BAY*   NOT AVBL
HALEAKALA*     NOT AVBL
KAUPO GAP*     NOT AVBL
KULA 1*          N/A     54  54 100 NW2         N/A
$$

HIZ023>026-290600-
BIG ISLAND OF HAWAII COAST AND LOWER SLOPES-

CITY           SKY/WX    TMP DP  RH WIND       PRES   REMARKS
KAILUA KONA    MOCLDY    81  67  62 N8        29.95R
HILO           LGT RAIN  73  70  90 N3        29.97R
HONOKAA*       NOT AVBL
KAWAIHAE MWT*  NOT AVBL
KAWAIHAE*        N/A     81 N/A N/A SW2         N/A
SOUTH POINT*   NOT AVBL
UPOLU AIRPORT* NOT AVBL
KAMUELA*       CLOUDY    70  61  73 CALM      30.08R
HAKALAU*         N/A     56  56 100 NE3         N/A
KALOKO-HONOKO* NOT AVBL
PALI 2*          N/A     64  64 100 S6G12       N/A
KEALAKOMO*       N/A     73  64  73 S3          N/A
KAUPULEHU*     NOT AVBL
KAPAPALA*        N/A     69  68  95 S3          N/A
LOWER KAHUKU*  NOT AVBL
PUHE CS*       NOT AVBL
PUHO CS*       NOT AVBL
PTA KEAMUKU*     N/A     64  59  82 CALM        N/A
WAIKOLOA*      NOT AVBL
$$

HIZ027>028-290600-
BIG ISLAND OF HAWAII INTERIOR AND SUMMMITS-

CITY           SKY/WX    TMP DP  RH WIND       PRES   REMARKS
BRADSHAW FIELD CLEAR     58  52  81 W5        30.28R
MK VISITOR CEN NOT AVBL
MAUNA KEA*       N/A     36  10  35 NW48        N/A  WCI  20
MAUNA LOA*       N/A     52  -6   9 MISG        N/A
MAUNA LOA 1*   NOT AVBL
PTA KIPUKA*      N/A     61  57  88 NW3         N/A
PTA RANGE 17*    N/A     61  55  82 NW6         N/A
PTA WEST*        N/A     72  68  88 NW7         N/A
NENE CABIN*    NOT AVBL
AHUMOA*        NOT AVBL
PTA PORTABLE*  NOT AVBL
PUU MALI*        N/A     54  54 100 W5G13       N/A
$$

HIC003-290600-
NORTHWEST ISLANDS-

CITY           SKY/WX    TMP DP  RH WIND       PRES   REMARKS
MIDWAY ISLAND  SUNNY    N/A N/A N/A NE10      30.19S
MIDWAY NOS*    NOT AVBL
FRENCH FRIGATE NOT AVBL
$$

PHZ110>124-180-290600-
BUOY REPORTS

STATION/POSITION TIME  TEMP    WIND        PRES    WAVE   SWELL
                       AIR SEA DIR/SP/G            HT/PER HT/DIR
                 (UTC) (F)     (DEG/KT/KT) (MB)    (FT/S) (FT/D)
BUOY 51001       NOT AVBL
BUOY 51101       0500   73 75   50/ 10/ 12 1016.3R   4/15   3/170
BUOY 51100       NOT AVBL
BUOY 51002       0500   80 84   40/  4/  6 1014.2R   4/ 9   5/ 80
BUOY 51003       0400   78 80   40/  8/ 10 1014.1R   5/11   5
BUOY 51004       0449   79 80  150/  6/  8 1014.4R   5/13   5/260
BARBERS PT BUOY  NOT AVBL
WAIMEA BAY BUOY  0500      77                N/A     3/ 8
KAILUA BAY BUOY  0500      77                N/A     4/ 9   2/ 40
LANAI BUOY       NOT AVBL
BARBERS PT 2     0500      77                N/A     3/13   2/180
PAUWELA MAUI     0500      78                N/A     3/ 8
HILO             0400      78                N/A     4/ 8   2/340
KANEOHE BAY BUOY 0500      77                N/A     4/ 8   2/ 10
HANALEI KAUAI    0500      78                N/A     3/ 8
KAHULUI HARBOR   0500   75 79  320/  5/  6 1014.8R
HONOLULU HARBOR  0500   76 77   50/  6/ 11 1014.9R
KILO NALU        NOT AVBL
HILO HARBOR      0500   73 76  340/  3/  5 1014.4R
MOKUOLOE         0500   76 79   40/  7/  9 1015.3R
NAWILIWILI       0500   74 80   10/  6/  8 1015.6R
WHOTS BUOY       NOT AVBL
BUOY 51028       NOT AVBL
$$

......................KEY........................................
  SKY/WX - SKY CONDITIONS/PRESENT WEATHER
  TMP    - TEMPERATURE IN FAHRENHEIT
  DWPT   - DEWPOINT IN FAHRENHEIT
  RH     - RELATIVE HUMIDITY IN PERCENT
  WIND   - DIRECTION AND SPEED /MPH FOR ISLANDS...KTS FOR BUOYS/
  PRES   - MEAN SEA LEVEL PRESSURE IN INCHES OF HG
  VSB    - VISIBILITY IN MILES
  HX     - HEAT INDEX
  WCI    - WIND CHILL INDEX
  VRB    - VARIABLE WIND DIRECTION
  N/A    - NOT AVAILABLE


USA.gov is the U.S. government's official web portal to all federal, state and local government web resources and services.